Вернуться в каталог

COSMOS 807

АктивенВоенныеPO
NORAD 8744·PAYLOAD·🇷🇺 Russia

Запущен Mar 12, 1976 с Plesetsk Cosmodrome

Loading…

Ближайшие Пролёты (ближайшие 24 часа)

TLE

СвежийSource: Space-Track

Эпоха: Sep 14, 2026, 13:41 UTC

1 08744U 76022A   26257.57022081  .00007227  00000-0  29086-3 0  9993
2 08744  82.9115 242.3465 0451086 323.6230 166.5260 14.63793715562690

Отслеживайте COSMOS 807 в реальном времени с AllMySat

Download on the App Store